Tracking 19283 objects as of 17-Nov-2018
HD Live streaming from Space Station
objects crossing your sky now

NAVSTAR 9 (USA 1)

Track NAVSTAR 9 (USA 1) now!
NAVSTAR 9 (USA 1) is classified as:


NORAD ID: 15039
Int'l Code: 1984-059A
Perigee: 20,414.0 km
Apogee: 21,475.1 km
Inclination: 62.2 °
Period: 748.8 minutes
Semi major axis: 27315 km
RCS: 0.4653 m2 (medium)
Launch date: June 13, 1984
Source: United States (US)
Launch site: AIR FORCE WESTERN TEST RANGE (AFWTR)
aabbcc
Your satellite tracking list
Your tracking list is empty




NASA's NSSDC Master Catalog

Two Line Element Set (TLE):
1 15039U 84059A   18320.54208750 +.00000109 +00000-0 +00000-0 0  9999
2 15039 062.2469 144.9920 0194232 036.1114 139.2663 01.92303540244877
Source of the keplerian elements: AFSPC